Time,TemperatureF,DewpointF,PressureIn,WindDirection,WindDirectionDegrees,WindSpeedMPH,WindSpeedGustMPH,Humidity,HourlyPrecipIn,Conditions,Clouds,dailyrainin,SoftwareType,DateUTC
2014-12-22 00:13:00,55.0,54.0,29.95,ENE,77,2.0,5.0,96,0.00,,,0.00,weatherlink.com 1.10,2014-12-22 06:13:00,
2014-12-22 00:27:00,55.0,54.0,29.95,East,82,1.0,4.0,96,0.00,,,0.00,weatherlink.com 1.10,2014-12-22 06:27:00,
2014-12-22 00:42:00,55.1,54.0,29.95,ENE,57,1.0,4.0,96,0.00,,,0.00,weatherlink.com 1.10,2014-12-22 06:42:00,
2014-12-22 00:57:00,55.1,54.0,29.95,ENE,60,2.0,3.0,96,0.00,,,0.00,weatherlink.com 1.10,2014-12-22 06:57:00,
2014-12-22 01:12:00,55.2,54.0,29.95,ENE,74,1.0,3.0,96,0.00,,,0.00,weatherlink.com 1.10,2014-12-22 07:12:00,
2014-12-22 01:27:00,55.2,54.0,29.94,NE,54,2.0,4.0,96,0.00,,,0.00,weatherlink.com 1.10,2014-12-22 07:27:00,
2014-12-22 01:42:00,55.1,54.0,29.93,NE,53,4.0,6.0,96,0.00,,,0.00,weatherlink.com 1.10,2014-12-22 07:42:00,
2014-12-22 01:57:00,55.1,54.0,29.93,ENE,57,2.0,4.0,96,0.00,,,0.00,weatherlink.com 1.10,2014-12-22 07:57:00,
2014-12-22 02:12:00,55.1,54.0,29.93,NE,52,0.0,5.0,96,0.00,,,0.00,weatherlink.com 1.10,2014-12-22 08:12:00,
2014-12-22 02:27:00,55.2,54.0,29.92,East,80,1.0,7.0,96,0.00,,,0.00,weatherlink.com 1.10,2014-12-22 08:27:00,
2014-12-22 02:42:00,55.2,54.0,29.92,ENE,60,3.0,4.0,96,0.00,,,0.00,weatherlink.com 1.10,2014-12-22 08:42:00,
2014-12-22 02:57:00,55.3,54.0,29.92,ESE,103,1.0,4.0,96,0.00,,,0.00,weatherlink.com 1.10,2014-12-22 08:57:00,
2014-12-22 03:12:00,55.2,54.0,29.91,NE,47,1.0,4.0,96,0.00,,,0.00,weatherlink.com 1.10,2014-12-22 09:12:00,
2014-12-22 03:27:00,55.2,54.0,29.90,East,79,1.0,4.0,96,0.00,,,0.00,weatherlink.com 1.10,2014-12-22 09:27:00,
2014-12-22 03:43:00,55.1,54.0,29.88,ENE,63,1.0,5.0,96,0.00,,,0.00,weatherlink.com 1.10,2014-12-22 09:43:00,
2014-12-22 03:58:00,55.1,54.0,29.88,South,190,1.0,5.0,97,0.00,,,0.00,weatherlink.com 1.10,2014-12-22 09:58:00,
2014-12-22 04:13:00,55.4,55.0,29.88,NE,44,2.0,5.0,97,0.00,,,0.00,weatherlink.com 1.10,2014-12-22 10:13:00,
2014-12-22 04:28:00,55.5,55.0,29.88,ENE,75,2.0,5.0,97,0.00,,,0.00,weatherlink.com 1.10,2014-12-22 10:28:00,
2014-12-22 04:43:00,55.8,55.0,29.88,East,81,0.0,4.0,97,0.00,,,0.00,weatherlink.com 1.10,2014-12-22 10:43:00,
2014-12-22 04:58:00,55.9,55.0,29.88,ESE,112,4.0,6.0,97,0.00,,,0.00,weatherlink.com 1.10,2014-12-22 10:58:00,
2014-12-22 05:13:00,55.5,54.0,29.88,ENE,78,0.0,6.0,96,0.00,,,0.00,weatherlink.com 1.10,2014-12-22 11:13:00,
2014-12-22 05:28:00,55.5,55.0,29.89,ENE,65,3.0,4.0,97,0.00,,,0.00,weatherlink.com 1.10,2014-12-22 11:28:00,
2014-12-22 05:43:00,55.5,55.0,29.89,ENE,63,1.0,4.0,97,0.00,,,0.00,weatherlink.com 1.10,2014-12-22 11:43:00,
2014-12-22 05:58:00,55.5,55.0,29.89,ENE,60,1.0,4.0,97,0.00,,,0.00,weatherlink.com 1.10,2014-12-22 11:58:00,
2014-12-22 06:13:00,55.6,55.0,29.89,East,82,1.0,3.0,97,0.00,,,0.00,weatherlink.com 1.10,2014-12-22 12:13:00,
2014-12-22 06:28:00,55.8,55.0,29.88,ENE,58,2.0,5.0,97,0.00,,,0.00,weatherlink.com 1.10,2014-12-22 12:28:00,
2014-12-22 06:43:00,55.8,55.0,29.87,ESE,103,0.0,5.0,97,0.00,,,0.00,weatherlink.com 1.10,2014-12-22 12:43:00,
2014-12-22 06:58:00,55.8,55.0,29.88,ENE,59,2.0,4.0,97,0.00,,,0.00,weatherlink.com 1.10,2014-12-22 12:58:00,
2014-12-22 07:13:00,55.9,55.0,29.89,ESE,114,1.0,4.0,97,0.00,,,0.00,weatherlink.com 1.10,2014-12-22 13:13:00,
2014-12-22 07:28:00,56.1,55.0,29.88,East,101,2.0,4.0,97,0.00,,,0.00,weatherlink.com 1.10,2014-12-22 13:28:00,
2014-12-22 07:43:00,56.5,56.0,29.88,ENE,74,0.0,3.0,97,0.00,,,0.00,weatherlink.com 1.10,2014-12-22 13:43:00,
2014-12-22 07:58:00,56.8,56.0,29.88,ENE,77,0.0,5.0,97,0.00,,,0.00,weatherlink.com 1.10,2014-12-22 13:58:00,
2014-12-22 08:13:00,57.0,56.0,29.88,ENE,72,0.0,4.0,97,0.00,,,0.00,weatherlink.com 1.10,2014-12-22 14:13:00,
2014-12-22 08:28:00,57.3,57.0,29.87,ENE,72,4.0,5.0,97,0.00,,,0.00,weatherlink.com 1.10,2014-12-22 14:28:00,
2014-12-22 08:43:00,57.6,57.0,29.88,SE,138,1.0,1.0,97,0.00,,,0.00,weatherlink.com 1.10,2014-12-22 14:43:00,
2014-12-22 08:58:00,58.0,57.0,29.87,East,83,1.0,3.0,97,0.00,,,0.00,weatherlink.com 1.10,2014-12-22 14:58:00,
2014-12-22 09:13:00,58.3,58.0,29.87,NE,56,2.0,3.0,97,0.00,,,0.00,weatherlink.com 1.10,2014-12-22 15:13:00,
2014-12-22 09:28:00,58.9,58.0,29.87,NE,47,0.0,4.0,97,0.00,,,0.00,weatherlink.com 1.10,2014-12-22 15:28:00,
2014-12-22 09:43:00,60.2,59.0,29.86,ENE,63,3.0,6.0,97,0.00,,,0.00,weatherlink.com 1.10,2014-12-22 15:43:00,
2014-12-22 09:58:00,60.9,60.0,29.86,ENE,72,1.0,4.0,97,0.00,,,0.00,weatherlink.com 1.10,2014-12-22 15:58:00,
2014-12-22 10:13:00,61.3,61.0,29.85,ENE,65,1.0,3.0,97,0.00,,,0.00,weatherlink.com 1.10,2014-12-22 16:13:00,
2014-12-22 10:28:00,63.7,63.0,29.84,ESE,115,1.0,5.0,97,0.00,,,0.00,weatherlink.com 1.10,2014-12-22 16:28:00,
2014-12-22 10:43:00,65.7,64.0,29.83,NW,305,1.0,3.0,93,0.00,,,0.00,weatherlink.com 1.10,2014-12-22 16:43:00,
2014-12-22 10:58:00,66.9,63.0,29.83,East,95,0.0,6.0,88,0.00,,,0.00,weatherlink.com 1.10,2014-12-22 16:58:00,